Погода в Твери

Погода в Твери : погода сейчас, прогноз погоды и архив. Всё, что Вы хотите узнать о погоде в Твери!

Хотите узнать прогноз погоды в Твери? Тогда Вам сюда: Погода в Твери

Поиск расширенной информации на нашем сайте:

Другие новости

Новости СМИ2

Главная страница сайта

Новости сайта

02.10.2013

Напоминаем, что на нашем новом сайте вы можете получить высокодетализированные прогнозы погоды по пунктам России, СНГ и мира (включающие важные для авиации метеовеличины, такие как направление и скорость ветра, видимость, явления погоды, количество и форма облачности, нижняя и верхняя граница облачности), а также ознакомиться с разнообразными материалами по авиационной метеорологии и подборкой полезных ссылок на эту тему.

Сайт Метеоцентр.Азия посвящён разработке технологий оптимизации авиаметеорологического обслуживания, включая проектирование и перспективное создание нескольких автоматизированных авиаметеорологических систем:
- система выпуска высокодетальных прогностических карт явлений погоды для нижнего воздушного пространства по России и ближнему зарубежью;
- система верификации прогнозов TAF (выпускаемых синоптиками официальных АМСГ РФ и ближнего зарубежья) и AUTOTAF (выпускаемых сайтом Метеоцентр.Азия) - выявление ошибок, онлайн-сопоставление с фактической погодой METAR, автоматическое внесение коррективов в прогнозы при резком отклонении фактической погоды от прогноза, подсчёт оправдываемости прогнозов по элементам и в целом;
- система обработки, анализа и отображения авиаметеорологической информации для применения провайдерами метеорологической информации.

Рекомендуем: http://udom24.ru/ объявлений продажа домов в красноярском крае.

Погода в Твери - сегодня

Время (UTC), дата Ветер
(°,м/с) 
Видим.   Явления Облачность Т
(°С)
Тd
(°С)
f(%) Тe
(°С)
Pmin
(гПа)
dP
(гПа)
Po
(мм)
O2
(г/м3)
Тmin Tmax R s Состояние
почвы
00 21.01.17 тихо ()   10 км    9/0 средняя 
[Ac und]
-4.8 -7 85 -5  1011.1  -1.9  744  306           
03 21.01.17 280 (З) 10 км    10/10 330 м 
[St]
-3.2 -4.8 89 -3  1009.4  -1.5  743  304  -7.5         
06 21.01.17 310 (СЗ) 10 км  в посл. час снег  8/3 600 м средняя 
[Sc|Ac trans]
-3.5 -5.8 84 -3  1010.6  1.2  744  304  -7.5    0.0  25  равномерный
сухой снег
100% 
09 21.01.17 310 (СЗ) 10 км    8/5 600 м средняя 
[Sc|Ac trans]
-2.6 -7.5 69 -4  1011.2  0.6  745  304           
12 21.01.17 330 (СЗ) 10 км  в посл. час снег  9/5 600 м средняя 
[Sc|Ac trans]
-2.4 -6 76 -3  1011.9  0.7  745  304           
15 21.01.17 310 (СЗ) 10 км    3/0 средняя 
[Ac trans]
-4.1 -8.6 71 -5  1015.4  3.4  748  307      0.0     
18 21.01.17 320 (СЗ) 10 км    ясно 
-6.1 -9.5 77 -8  1018.1  2.5  750  310    -2  0.0     
21 21.01.17 320 (СЗ) 10 км    ясно 
-7.2 -9.7 82 -9  1020.4  2.1  751  312           
00 22.01.17 290 (З) 10 км    ясно 
-8.4 -10 88 -8  1020.9  0.4  751  313           
03 22.01.17 310 (СЗ) 10 км    10/10 240 м 
[St]
-8.1 -9.6 89 -8  1020.9  0.1  752  313  -9.7         
06 22.01.17 270 (З) 10 км    8/4 300 м средняя 
[St|Ac trans]
-5.7 -8.1 83 -5  1019.3  -1.4  750  310  -9.7      25  равномерный
сухой снег
100% 
09 22.01.17 260 (З) 4000 м  слаб. снег  10/10 540 м 
[Ns]
-3.7 -6.5 81 -3  1017.1  -2  749  307           
12 22.01.17 250 (З) 2000 м  слаб. переохл. морось (гололёд){снег} [диам. гололёда 1 мм]  10/10 210 м 
[St]
-2.9 -3.9 93 -2  1013.9  -3.1  747  305           
15 22.01.17 300 (СЗ) 4000 м  слаб. снег{морось} [диам. гололёда 1 мм]  10/10 300 м 
[Frnb|Ns]
-1.8 -2.5 95 -1  1014.1  0.3  747  303      0.4     
18 22.01.17 310 (СЗ) 10 км  слаб. снег{морось} [диам. гололёда 1 мм]  10/10 330 м 
[Frnb|Ns]
-1.7 -2.3 96 -1  1015.1  748  303    -1.3     
21 22.01.17 тихо ()   4000 м  слаб. снег [диам. гололёда 1 мм]  10/10 120 м 
[Frnb|Ns]
-1.7 -2.4 95 -2  1015.8  0.7  748  304           
00 23.01.17 тихо ()   2000 м  снег [диам. гололёда 1 мм]  10/10 120 м 
[Frnb|Ns]
-1.8 -2.4 96 -2  1015.4  -0.4  748  304           
03 23.01.17 тихо ()   4000 м  слаб. снег [диам. гололёда 1 мм]  10/10 100 м 
[Frnb|Ns]
-1.4 -1.9 96 -1  1014.3  -1.1  747  303  -1.9       
06 23.01.17 тихо ()   10 км  {снег} [диам. гололёда 1 мм]  9/9 500 м 
[Sc]
+0.2 -0.5 95 1013.5  -0.6  746  301  -1.9    26  равномерный
сухой снег
100% 
09 23.01.17 300 (СЗ) 10 км    8/8 600 м 
[Sc]
+0.9 -0.4 91 +2  1012.5  -1  746  300           
12 23.01.17 250 (З) 10 км    8/8 500 м 
[Sc]
+1 -1.1 86 +2  1010.4  -2  744  299           
15 23.01.17 260 (З) 10 км    9/9 800 м 
[Sc]
+0.3 -1.5 88 +1  1009.3  -1.1  743  299      0.0     
18 23.01.17 240 (ЮЗ) 10 км    9/9 960 м 
[Sc]
-0.1 -2.2 86 +1  1007.6  -1.7  742  299    +1.2       
21 23.01.17 210 (ЮЗ) 10 км    9/9 930 м 
[Sc]
-0.6 -2.6 86 -1  1006.4  -1.2  741  300           
00 24.01.17 250 (З) 10 км  слаб. снег  10/10 360 м 
[Frnb|Ns]
-0.9 -1.9 93 1005.1  -1.3  740  299           
Время (UTC), дата Ветер
(°,м/с) 
Видим.   Явления Облачность Т
(°С)
Тd
(°С)
f(%) Тe
(°С)
Pmin
(гПа)
dP
(гПа)
Po
(мм)
O2
(г/м3)
Тmin Tmax R s Состояние
почвы

Для получения пояснительной информации подведите курсор к названию столбца.

ПОГОДА в Твери - архив

Всё, что Вы хотите узнать о погоде в Твери - удобно и подробно!

Выберите нужную дату (начиная с 1 января 2015* года) и нажмите кнопку "Найти".
Будут отображены архивные сводки погоды по пункту Тверь, начиная с указанной даты.


Отображать данные в формате CSV (для использования в таблицах Excel)


Внимание! Наш архив погоды предназначен исключительно для личного некоммерческого использования в познавательных целях. Если Вам необходимы официальные справки о состоянии погоды (для производственных, юридических, коммерческих и т.п. целей), обращайтесь в органы Росгидромета.

*Примечание: данная дата относится к архиву по метеостанциям СССР (Россия, СНГ, Балтия).
Архив по метеостанциям Зарубежной Европы и Азии (кроме Китая) хранится 10 дней, по другим регионам земного шара (Китай, Африка, Америка, Австралия, Океания) - 1 день.

Тверь - район местоположения метеостанции


Название, широта, долгота, высота метеостанции:
Тверь (город) 56.8°ш. 35.7°д. 137 м над ур. моря [Российская Федерация]

Дополнительная информация

В oтличие oт бoльшинства пoгoдных сайтoв мы публикуем пoдрoбную метеoинфoрмацию в детальнoм прoфессиoнальнoм фoрмате.

Характеристики температуры и влажнoсти вoздуха измеряются на высoте 2 м в тени вдали oт зданий и деревьев.
Скoрoсть ветра измеряется на высoте 10 м (на урoвне рoста челoвека скoрoсть ветра ниже в 1.5-2 раза). Если метеoстанция нахoдится в гoрoде или в лесу, тo скoрoсть ветра занижена на 2-4 м/с пo сравнению с oткрытым местoм. Скoрoсть ветра над акватoриями крупных рек и oзёр, а также на вершинах хoлмoв на 2-5 м/с выше, чем в oбычных услoвиях.
Атмoсфернoе давление в разных тoчках местнoсти мoжет значительнo oтличаться oт давления на метеoстанции, в зависимoсти oт услoвий рельефа (при пoдъёме на 10 м давление пoнижается примернo на 1 мм рт.ст.).